Station ROAM4 - Rock of Ages, MI Image indicating link to RSS feed of recent meteorological observations for station ROAM4


Conditions at ROAM4 as of
(6:00 am EDT)
1000 GMT on 07/14/2024:
     

Click on the graph icon in the table below to see a time series plot of the last five days of that observation.

5-day plot - Wind Direction Wind Direction (WDIR): SW ( 220 deg true )
5-day plot - Wind Speed Wind Speed (WSPD): 5 kts
5-day plot - Wind Gust Wind Gust (GST): 5 kts
5-day plot - Atmospheric Pressure Atmospheric Pressure (PRES):29.85 in
5-day plot - Pressure Tendency Pressure Tendency (PTDY):-0.01 in ( Falling )
5-day plot - Air Temperature Air Temperature (ATMP): 65.7 °F
5-day plot - Wind Speed at 10 Meters Wind Speed at 10 meters (WSPD10M): 4 kts
5-day plot - Wind Speed at 20 Meters Wind Speed at 20 meters (WSPD20M): 4 kts
5-day plot -  Wind Speed, Wind Gust and Atmospheric Pressure Combined plot of Wind Speed, Gust, and Air Pressure
Continuous Winds
TIME
(EDT)
5-day plot - Wind Direction WDIR 5-day plot - Wind Speed WSPD
6:00 amSW ( 217 deg ) 4 kts
5:50 amSW ( 219 deg ) 4 kts
5:40 amSW ( 232 deg ) 3 kts
5:30 amWSW ( 239 deg ) 4 kts
5:20 amWSW ( 249 deg ) 5 kts
5:10 amWNW ( 285 deg ) 5 kts
 
Peak gust during the measurement hour
TIME
(EDT)
5-day plot - Gust Direction GDR 5-day plot - Gust Speed GST
5:02 amWNW ( 290 deg ) 6 kts
Previous observations
TIME
(EDT)
5-day plot - Wind Direction
WDIR
 
5-day plot - Wind Speed
WSPD
kts
5-day plot - Wind Gust
GST
kts
5-day plot - Wave Height
WVHT
ft
5-day plot - Dominant Wave Period
DPD
sec
5-day plot - Average Wave Period
APD
sec
5-day plot - Mean Wave Direction
MWD
 
5-day plot - Atmospheric Pressure
PRES
in
5-day plot - Pressure Tendency
PTDY
in
5-day plot - Air Temperature
ATMP
°F
5-day plot - Water Temperature
WTMP
°F
5-day plot - Dew Point
DEWP
°F
5-day plot - Salinity
SAL
psu
5-day plot - Visibility
VIS
nmi
5-day plot - Tide (above MLLW)
TIDE
ft
2024-07-14 05:00 am NW 5 6----29.84-0.08 66.0-----
2024-07-14 04:00 am SW 9 10----29.83-0.10 68.0-----
2024-07-14 03:00 amSSE 3 4----29.86-0.05 66.9-----
2024-07-14 02:00 am SW 8 9----29.91+0.00 66.0-----
2024-07-14 01:00 am S 8 10----29.93+0.00 66.9-----
2024-07-14 12:00 am SE 19 20----29.91-0.05 69.1-----
2024-07-13 11:00 pm E 11 12----29.92-0.02 70.7-----
2024-07-13 10:00 pmNNE 20 21----29.94+0.01 70.2-----
2024-07-13 09:00 pmWSW 12 13----29.96+0.03 68.7-----
2024-07-13 08:00 pmSSW 10 10----29.94-0.03 68.2-----
2024-07-13 07:00 pmSSW 13 14----29.92-0.06 70.2-----
2024-07-13 06:00 pm S 12 13----29.93-0.08 70.5-----
2024-07-13 05:00 pm SW 4 5----29.96-0.06 69.3-----
2024-07-13 04:00 pm S 8 8----29.98-0.04 68.4-----
2024-07-13 03:00 pmSSW 5 5----30.01-0.02 67.1-----
2024-07-13 02:00 pmSSW 12 12----30.02-0.03 68.5-----
2024-07-13 01:00 pm S 15 15----30.02-0.03 66.2-----
2024-07-13 12:00 pmSSW 16 16----30.03-0.02 66.9-----
2024-07-13 11:00 amSSW 18 19----30.06-0.01 66.2-----
2024-07-13 10:00 amSSW 20 21----30.06+0.01 65.7-----
2024-07-13 09:00 amSSW 19 19----30.06+0.00 67.6-----
2024-07-13 08:00 am SW 17 17----30.07+0.02 70.2-----
2024-07-13 07:00 am SW 16 16----30.04+0.00 72.5-----
2024-07-13 06:00 am SW 13 14----30.06+0.00 72.3-----